| time (UTC) | temp F | wind direction | speed MPH | gust MPH | rain 1hr in | rain 24hr in | rain mn in | humidity % | barometer mb |
| 20260901113203 | 70 | 260 | 12.0 | 0.0 | 0.00 | 0.00 | 0.00 | 52 | 1021.0 |
| 20260901111903 | 68 | 260 | 12.0 | 0.0 | 0.00 | 0.00 | 0.00 | 56 | |
| 20260901110204 | 68 | 250 | 13.0 | 0.0 | 0.00 | 0.00 | 0.00 | 60 | 1021.0 |
| 20260901103203 | 68 | 240 | 13.0 | 0.0 | 0.00 | 0.00 | 0.00 | 56 | 1021.0 |
| 20260901102103 | 66 | 260 | 12.0 | 0.0 | 0.00 | 0.00 | 0.00 | 55 | |
| 20260901100203 | 66 | 240 | 14.0 | 0.0 | 0.00 | 0.00 | 0.00 | 59 | 1021.0 |
| 20260901093202 | 66 | 240 | 15.0 | 0.0 | 0.00 | 0.00 | 0.00 | 59 | 1021.0 |
| 20260901091801 | 66 | 260 | 14.0 | 0.0 | 0.00 | 0.00 | 0.00 | 59 | |
| 20260901090203 | 66 | 250 | 14.0 | 0.0 | 0.00 | 0.00 | 0.00 | 63 | 1021.0 |
| 20260901083203 | 64 | 260 | 15.0 | 0.0 | 0.00 | 0.00 | 0.00 | 63 | 1020.0 |
| 20260901082017 | 64 | 270 | 12.0 | 0.0 | 0.00 | 0.00 | 0.00 | 63 | |
| 20260901080203 | 64 | 240 | 15.0 | 0.0 | 0.00 | 0.00 | 0.00 | 67 | 1020.0 |
| 20260901073202 | 63 | 240 | 15.0 | 0.0 | 0.00 | 0.00 | 0.00 | 72 | 1020.0 |
| 20260901072002 | 61 | 260 | 14.0 | 0.0 | 0.00 | 0.00 | 0.00 | 77 | |
| 20260901070203 | 61 | 230 | 15.0 | 0.0 | 0.00 | 0.00 | 0.00 | 82 | 1020.0 |
| 20260901063203 | 61 | 230 | 15.0 | 0.0 | 0.00 | 0.00 | 0.00 | 82 | 1020.0 |
| 20260901061801 | 59 | 240 | 12.0 | 0.0 | 0.00 | 0.00 | 0.00 | 82 | |
| 20260901060203 | 59 | 220 | 17.0 | 0.0 | 0.00 | 0.00 | 0.00 | 87 | 1020.0 |
| 20260901053202 | 57 | 220 | 14.0 | 0.0 | 0.00 | 0.00 | 0.00 | 87 | 1019.0 |
| 20260901051902 | 57 | 240 | 12.0 | 0.0 | 0.00 | 0.00 | 0.00 | 87 | |
| 20260901050202 | 57 | 220 | 12.0 | 0.0 | 0.00 | 0.00 | 0.00 | 87 | 1019.0 |
| 20260901043203 | 57 | 220 | 15.0 | 0.0 | 0.00 | 0.00 | 0.00 | 87 | 1019.0 |
| 20260901042102 | 57 | 240 | 12.0 | 0.0 | 0.00 | 0.00 | 0.00 | 87 | |
| 20260901040202 | 57 | 220 | 13.0 | 0.0 | 0.00 | 0.00 | 0.00 | 87 | 1019.0 |
| 20260901033203 | 57 | 210 | 14.0 | 0.0 | 0.00 | 0.00 | 0.00 | 87 | 1019.0 |
| 20260901031801 | 59 | 240 | 14.0 | 0.0 | 0.00 | 0.00 | 0.00 | 82 | |
| 20260901030203 | 59 | 230 | 12.0 | 0.0 | 0.00 | 0.00 | 0.00 | 82 | 1019.0 |
| 20260901023202 | 59 | 220 | 13.0 | 0.0 | 0.00 | 0.00 | 0.00 | 82 | 1018.0 |
| 20260901022001 | 59 | 240 | 12.0 | 0.0 | 0.00 | 0.00 | 0.00 | 77 | |
| 20260901020202 | 59 | 210 | 9.0 | 0.0 | 0.00 | 0.00 | 0.00 | 77 | 1018.0 |
| 20260901013203 | 57 | 210 | 9.0 | 0.0 | 0.00 | 0.00 | 0.00 | 87 | 1018.0 |
| 20260901012017 | 59 | 240 | 12.0 | 0.0 | 0.00 | 0.00 | 0.00 | 77 | |
| 20260901010203 | 61 | 220 | 12.0 | 0.0 | 0.00 | 0.00 | 0.00 | 72 | 1018.0 |
| 20260901003202 | 61 | 210 | 15.0 | 0.0 | 0.00 | 0.00 | 0.00 | 72 | 1018.0 |
| 20260901001801 | 61 | 230 | 16.0 | 0.0 | 0.00 | 0.00 | 0.00 | 67 | |
| 20260901000204 | 61 | 210 | 14.0 | 0.0 | 0.00 | 0.00 | 0.00 | 72 | 1018.0 |
| 20260831233202 | 61 | 220 | 16.0 | 0.0 | 0.00 | 0.00 | 0.00 | 72 | 1018.0 |
| 20260831231917 | 61 | 240 | 12.0 | 0.0 | 0.00 | 0.00 | 0.00 | 67 | |
| 20260831230202 | 61 | 220 | 13.0 | 0.0 | 0.00 | 0.00 | 0.00 | 67 | 1018.0 |
| 20260831223203 | 61 | 210 | 12.0 | 0.0 | 0.00 | 0.00 | 0.00 | 72 | 1018.0 |
| 20260831222104 | 63 | 240 | 14.0 | 0.0 | 0.00 | 0.00 | 0.00 | 63 | |
| 20260831220203 | 63 | 210 | 15.0 | 0.0 | 0.00 | 0.00 | 0.00 | 67 | 1018.0 |
| 20260831213203 | 64 | 200 | 14.0 | 0.0 | 0.00 | 0.00 | 0.00 | 63 | 1017.0 |
| 20260831211801 | 63 | 220 | 9.0 | 0.0 | 0.00 | 0.00 | 0.00 | 67 | |
| 20260831210204 | 63 | 200 | 12.0 | 0.0 | 0.00 | 0.00 | 0.00 | 72 | 1017.0 |
| 20260831203202 | 61 | 190 | 10.0 | 0.0 | 0.00 | 0.00 | 0.00 | 77 | 1016.0 |
| 20260831202001 | 61 | 220 | 9.0 | 0.0 | 0.00 | 0.00 | 0.00 | 72 | |
| 20260831200203 | 61 | 210 | 10.0 | 0.0 | 0.00 | 0.00 | 0.00 | 77 | 1016.0 |
| 20260831193203 | 64 | 210 | 9.0 | 0.0 | 0.00 | 0.00 | 0.00 | 67 | 1016.0 |
| 20260831192024 | 63 | 220 | 9.0 | 0.0 | 0.00 | 0.00 | 0.00 | 67 | |
| 20260831190203 | 63 | 200 | 10.0 | 0.0 | 0.00 | 0.00 | 0.00 | 72 | 1016.0 |
| 20260831183203 | 64 | 210 | 9.0 | 0.0 | 0.00 | 0.00 | 0.00 | 67 | 1016.0 |
| 20260831181803 | 66 | 230 | 9.0 | 0.0 | 0.00 | 0.00 | 0.00 | 59 | |
| 20260831180202 | 66 | 210 | 12.0 | 0.0 | 0.00 | 0.00 | 0.00 | 63 | 1015.0 |
| 20260831173203 | 70 | 220 | 15.0 | 0.0 | 0.00 | 0.00 | 0.00 | 52 | 1015.0 |
| 20260831172001 | 70 | 230 | 14.0 | 0.0 | 0.00 | 0.00 | 0.00 | 56 | |
| 20260831170203 | 72 | 220 | 15.0 | 0.0 | 0.00 | 0.00 | 0.00 | 53 | 1015.0 |
| 20260831163203 | 72 | 220 | 17.0 | 0.0 | 0.00 | 0.00 | 0.00 | 49 | 1015.0 |
| 20260831162105 | 72 | 250 | 14.0 | 0.0 | 0.00 | 0.00 | 0.00 | 53 | |
| 20260831160203 | 72 | 220 | 20.0 | 0.0 | 0.00 | 0.00 | 0.00 | 53 | 1015.0 |
| 20260831153202 | 73 | 230 | 16.0 | 0.0 | 0.00 | 0.00 | 0.00 | 49 | 1015.0 |
| 20260831151805 | 73 | 250 | 16.0 | 0.0 | 0.00 | 0.00 | 0.00 | 49 | |
| 20260831150203 | 73 | 220 | 20.0 | 0.0 | 0.00 | 0.00 | 0.00 | 49 | 1015.0 |
| 20260831143202 | 73 | 260 | 14.0 | 0.0 | 0.00 | 0.00 | 0.00 | 53 | 1015.0 |
| 20260831141901 | 73 | 260 | 18.0 | 0.0 | 0.00 | 0.00 | 0.00 | 49 | |
| 20260831140202 | 73 | 250 | 15.0 | 0.0 | 0.00 | 0.00 | 0.00 | 53 | 1015.0 |
| 20260831133203 | 72 | 220 | 17.0 | 0.0 | 0.00 | 0.00 | 0.00 | 56 | 1015.0 |
| 20260831131902 | 72 | 240 | 20.0 | 0.0 | 0.00 | 0.00 | 0.00 | 56 | |
| 20260831130203 | 72 | 230 | 18.0 | 0.0 | 0.00 | 0.00 | 0.00 | 60 | 1015.0 |
| 20260831123203 | 72 | 240 | 15.0 | 0.0 | 0.00 | 0.00 | 0.00 | 60 | 1015.0 |
| 20260831121804 | 70 | 260 | 14.0 | 0.0 | 0.00 | 0.00 | 0.00 | 60 | |
| 20260831120202 | 70 | 230 | 16.0 | 0.0 | 0.00 | 0.00 | 0.00 | 64 | 1015.0 |